Regional Weather Roundup
Issued by NWS

Home | Current Version | Previous Version | Graphics & Text | Print | Product List | Glossary On
Versions: 1 2 3 4 5 6 7 8 9 10 11 12 13 14 15 16 17 18 19 20 21 22 23 24 25 26 27 28 29 30 31 32 33 34 35 36 37 38 39 40 41 42 43 44 45 46 47 48 49 50
000
ASUS43 KMKX 232300
RWRWI

WISCONSIN REGIONAL WEATHER ROUNDUP
NATIONAL WEATHER SERVICE MILWAUKEE/SULLIVAN WI
600 PM CDT THU MAR 23 2017

NOTE: "FAIR" INDICATES FEW OR NO CLOUDS BELOW 12,000 FEET WITH NO
SIGNIFICANT WEATHER AND/OR OBSTRUCTIONS TO VISIBILITY.

WIZ001-002-006>008-014>016-023>028-240000-
NORTHWEST WISCONSIN

CITY           SKY/WX    TMP DP  RH WIND       PRES   REMARKS
SUPERIOR ARPT  CLOUDY    37  27  67 S5        29.93S WCI  33
ASHLAND        CLOUDY    38  27  64 CALM      29.94F
HAYWARD        LGT RAIN  38  26  62 CALM      29.91R
SIREN          CLOUDY    35  31  85 CALM      29.88F
CUMBERLAND     CLOUDY    37  23  56 SE12G21   29.85F WCI  30
RICE LAKE      CLOUDY    39  24  54 SE18      29.87F WCI  30
CHETEK         LGT RAIN  38  26  60 SE12G22   29.86F WCI  31
LADYSMITH      CLOUDY    38  25  58 SE15      29.92F WCI  29
EAU CLAIRE     CLOUDY    42  24  49 SE9       29.92F
MENOMONIE      CLOUDY    42  27  55 SE13      29.91F
NEW RICHMOND   CLOUDY    40  25  54 S14G20    29.88F WCI  32
OSCEOLA        CLOUDY    40  28  60 S14G22    29.90R WCI  32
$$

WIZ003>005-009-010-017-018-240000-
NORTH CENTRAL WISCONSIN

CITY           SKY/WX    TMP DP  RH WIND       PRES   REMARKS
MANITOWISH WTR DRIZZLE   36  22  57 S9        29.95S WCI  29
ARBOR VITAE    LGT RAIN  37  22  56 S9        29.97R WCI  30
WOODRUFF       LGT RAIN  37  22  56 S9        29.97R WCI  30
RHINELANDER    LGT RAIN  38  23  55 S7        29.99R WCI  33
EAGLE RIVER    CLOUDY    36  19  50 S5G16     29.97R WCI  32
LAND O LAKES   CLOUDY    37  19  49 S10       29.98R WCI  29
PHILLIPS       RAIN      36  25  65 SE14      29.91F WCI  27
TOMAHAWK       CLOUDY    37  20  50 S3        30.02R
MEDFORD        DRIZZLE   36  23  59 S6        29.99R WCI  31
MERRILL        CLOUDY    39  20  47 S6        30.00R WCI  34
$$

WIZ029-030-035-036-043>047-240000-
CENTRAL WISCONSIN

CITY           SKY/WX    TMP DP  RH WIND       PRES   REMARKS
WAUSAU         CLOUDY    39  21  48 S7        30.00R WCI  34
MOSINEE        NOT AVBL
MARSHFIELD     LGT RAIN  39  24  55 S9        29.98R WCI  33
STEVENS POINT  CLOUDY    39  21  48 SE8       29.97R WCI  34
WAUPACA        PTSUNNY   43  27  53 E14G22    29.96F
WAUTOMA        CLOUDY    44  21  40 SE20      29.94F
WISC RAPIDS    CLOUDY    43  22  43 S5        30.03R
CAMP DOUGLAS   NOT AVBL
$$

WIZ011>013-019>022-031-037>040-048>050-240000-
NORTHEAST WISCONSIN

CITY           SKY/WX    TMP DP  RH WIND       PRES   REMARKS
ANTIGO         CLOUDY    36  24  62 S8        29.99R WCI  29
SHAWANO        CLOUDY    39  26  59 SE16G22   30.00F WCI  30
OCONTO         CLOUDY    35  26  69 S12       30.07F WCI  26
STURGEON BAY   CLOUDY    35  25  66 S17G23    30.07F WCI  25
GREEN BAY      CLOUDY    37  28  70 SE16      30.01F WCI  28
MANITOWOC      NOT AVBL
APPLETON       CLOUDY    37  25  60 SE14G23   29.98F WCI  29
CLINTONVILLE   CLOUDY    37  25  60 SE8G17    30.01F WCI  31
OSHKOSH        PTSUNNY   38  27  64 SE17      29.95F WCI  28
$$

WIZ032>034-041-042-053>061-240000-
SOUTHWEST WISCONSIN

CITY           SKY/WX    TMP DP  RH WIND       PRES   REMARKS
LA CROSSE      TSTM      42  34  73 VRB5      29.98R
SPARTA         CLOUDY    44  29  56 S8        29.97F
VIROQUA        CLOUDY    39  32  77 SE10      29.93F WCI  32
BOSCOBEL       TSTM      40  33  76 VRB6G16   29.96F
PRAIRIE DU CHI CLOUDY    37  36  96 E9        29.93F WCI  30
PLATTEVILLE    CLOUDY    38  31  75 SE12G26   29.97R WCI  31
$$

WIZ056-057-062-063-064-067-068-240000-
SOUTH CENTRAL WISCONSIN

CITY           SKY/WX    TMP DP  RH WIND       PRES   REMARKS
REEDSBURG      CLOUDY    43  24  47 SW12G22   29.97R
BARABOO/DELLS  CLOUDY    42  22  45 S16G24    29.92F
LONE ROCK      LGT RAIN  43  27  52 S6        29.99R
MINERAL POINT  CLOUDY    41  27  56 SE20G32   29.93F
MADISON        CLOUDY    43  20  39 S20G35    29.92F
MIDDLETON      CLOUDY    43  24  45 SE21G29   29.91F
WATERTOWN      CLOUDY    44  22  40 S14G21    30.05F
MONROE         CLOUDY    41  27  56 SE29G35   29.98F
JANESVILLE     CLOUDY    46  23  39 SE14      30.02F
$$

WIZ051-052-058>065-066-070>072-240000-
SOUTHEAST WISCONSIN

CITY           SKY/WX    TMP DP  RH WIND       PRES   REMARKS
MILWAUKEE      CLOUDY    41  27  57 SE14      30.12F
WAUKESHA       CLOUDY    37  23  56 SE14      30.11F WCI  29
MILWAUKEE/TIMM CLOUDY    39  21  48 SE14      30.12F WCI  31
RACINE         CLOUDY    40  28  62 S12G22    30.13F WCI  33
KENOSHA        CLOUDY    42  27  55 SE14      30.11F
FOND DU LAC    CLOUDY    40  26  57 SE23G29   29.95F WCI  30
SHEBOYGAN      CLOUDY    36  26  67 SE15G23   30.07F WCI  27
WEST BEND      CLOUDY    37  27  65 SE13      30.08F WCI  29
JUNEAU         CLOUDY    44  20  38 SE20G26   30.03F
$$

LSZ147-162-240000-
LAKE SUPERIOR

STATION/POSITION TIME  TEMP    WIND        PRES    WAVE
                       AIR SEA DIR/SP/G            HT/PER
                 (UTC) (F)     (DEG/KT/KT) (MB)    (FT/S)
DEVILS ISLAND    2200   35     190/  1/  2 1015.4S
PORT WING        2240   38      CALM  /  4 1013.9F
SAXON HARBOR     2240   41      60/  3/  8 1011.9F
$$

LMZ867-665-643>646-240000-
LAKE MICHIGAN

STATION/POSITION TIME  TEMP    WIND        PRES    WAVE
                       AIR SEA DIR/SP/G            HT/PER
                 (UTC) (F)     (DEG/KT/KT) (MB)    (FT/S)
CHAMBERS ISLAND  2240   35     160/  7/ 13 1018.3F
NORTHPORT PIER   2230   36     160/ 10/ 17 1019.6F
SISTER BAY       2035   34     190/ 20/ 28   N/A
KEWAUNEE LAKESHO 2230   36     180/ 21/ 23 1019.8F
SHEBOYGAN LAKESH 2200   36     170/ 21/ 23 1021.2F
PORT WASHINGTON  2230   37     170/ 11/ 16 1021.0F
MILWAUKEE LAKESH 2220   37     160/ 13/ 15   N/A
KENOSHA   LAKESH 2200   38     150/ 13/ 16 1021.0
$$

TC  - TEMPERATURE IN CELSIUS
VSB - VISIBILITY IN STATUTE MILES
WCI - WIND CHILL INDEX
HX  - HEAT INDEX





USA.gov is the U.S. government's official web portal to all federal, state and local government web resources and services.